SES-2 1 37809U 11049A 21060.87476487 -.00000204 00000-0 00000+0 0 9998 2 37809 0.0565 295.5417 0003013 46.2830 45.9497 1.00271704 34612 ARABSAT-5C 1 37810U 11049B 21060.76243917 .00000115 00000-0 00000-0 0 9999 2 37810 0.0608 12.9903 0000836 318.7111 122.5044 1.00271081 34676 ARIANE 5 R/B 1 37811U 11049C 21060.50393618 .00000596 00000-0 21638-3 0 9992 2 37811 2.8852 34.6944 7107517 24.1422 356.9617 2.49817358 83364